Regional Weather Roundup
Issued by NWS

Home | Current Version | Previous Version | Text Only | Print | Product List | Glossary Off
Versions: 1 2 3 4 5 6 7 8 9 10 11 12 13 14 15 16 17 18 19 20 21 22 23 24 25 26 27 28 29 30 31 32 33 34 35 36 37 38 39 40 41 42 43 44 45 46 47 48 49 50

000
ASUS43 KLMK 231702
RWRKY
KENTUCKY REGIONAL WEATHER ROUNDUP
NATIONAL WEATHER SERVICE LOUISVILLE KY
100 PM EDT SAT AUG 23 2014

NOTE "FAIR" INDICATES FEW OR NO CLOUDS BELOW 12,000 FEET
WITH NO SIGNIFICANT WEATHER AND/OR OBSTRUCTIONS TO VISIBILITY.

KYZ001>023-026-027-061>063-070>075-231800-
WESTERN AND SOUTH CENTRAL KENTUCKY

CITY           SKY/WX    TMP DP  RH WIND       PRES   REMARKS
PADUCAH        PTSUNNY   87  78  74 CALM      29.98F HX 100
HENDERSON      SUNNY     91  79  66 SW6       29.96S HX 107
OWENSBORO      MOSUNNY   90  79  70 W5        29.97F HX 106
HOPKINSVILLE   PTSUNNY   90  79  69 W10       29.99F HX 105
BOWLING GREEN  MOSUNNY   89  74  60 MISG      30.00F HX  98
GLASGOW        SUNNY     88  72  60 SW6       30.02S HX  94
$$

KYZ024-025-028>034-038-045-046-053-231800-
NORTH CENTRAL KENTUCKY

CITY           SKY/WX    TMP DP  RH WIND       PRES   REMARKS
LOUISVILLE/SDF PTSUNNY   87  74  64 SE6       30.00F HX  95
LOUISVILLE/LOU PTSUNNY   87  73  62 E5        30.01S HX  94
FORT KNOX      MOSUNNY   85  72  64 VRB2      30.00F HX  91
$$

KYZ035>037-039>044-047>052-055>060-089>105-231800-
NORTHEAST KENTUCKY

CITY           SKY/WX    TMP DP  RH WIND       PRES   REMARKS
LEXINGTON      SUNNY     88  71  57 CALM      30.04S HX  94
COVINGTON      PTSUNNY   85  70  60 S5        30.02F
FRANKFORT      PTSUNNY   85  73  67 CALM      30.02S HX  91
$$

KYZ054-064>069-076>088-106>120-231800-
SOUTHEAST KENTUCKY

CITY           SKY/WX    TMP DP  RH WIND       PRES   REMARKS
JACKSON        MOSUNNY   82  72  71 W3        30.06S
LONDON         PTSUNNY   85  72  65 W5        30.05F HX  91
SOMERSET       CLOUDY    84  70  61 CALM      30.05S
MIDDLESBORO    PTSUNNY   86  72  62 NE6       30.04F HX  92
MONTICELLO     PTSUNNY   89  74  61 CALM      30.05F HX  97
$$




USA.gov is the U.S. government's official web portal to all federal, state and local government web resources and services.